Location: Olmeneta
(45.2333°N, 10.0167°E)
Time: 18:35:40
(UTC+00:00)

Cosmos 1066 Rocket - Pass Details

Date: 03 March 2021
Orbit: 799 x 894 km, 81.2° (Epoch: 15 April)

Event Time Altitude Azimuth Distance (km) Brightness Sun altitude
Rises 19:36:10 0° 347° (NNW) 3,441 7.8 -26.2°
Reaches altitude 10° 19:38:35 10° 346° (NNW) 2,514 7.0 -26.6°
Maximum altitude 19:44:17 75° 262° (W) 912 4.3 -27.6°
Enters shadow 19:45:47 51° 193° (SSW) 1,100 4.6 -27.8°
